Location: Angwan Shehu
(11.2514°N, 7.4613°E)
Time: 01:20:41
(UTC+00:00)

Tiros 1 - Pass Details

Date: 25 April 2021
Orbit: 630 x 664 km, 48.4° (Epoch: 06 May)

Event Time Altitude Azimuth Distance (km) Brightness Sun altitude
Rises 05:00:21 0° 238° (WSW) 2,970 - -4.1°
Exits shadow 05:01:15 - 240° (WSW) 2,632 9.6 -3.8°
Reaches altitude 10° 05:02:52 10° 247° (WSW) 2,054 9.1 -3.5°
Maximum altitude 05:07:09 34° 312° (NW) 1,072 8.0 -2.4°
Drops below altitude 10° 05:11:25 10° 17° (NNE) 2,034 10.2 -1.4°
Sets 05:13:54 0° 27° (NNE) 2,936 11.2 -0.8°
